Time,TemperatureF,DewpointF,PressureIn,WindDirection,WindDirectionDegrees,WindSpeedMPH,WindSpeedGustMPH,Humidity,HourlyPrecipIn,Conditions,Clouds,dailyrainin,SolarRadiationWatts/m^2,SoftwareType,DateUTC
2013-03-23 00:00:00,30.4,17.4,30.05,NNW,338,0.0,0.0,58,0.00,BKN,SCT,0.00,0.0,WeatherDisplay:10.37,2013-03-23 04:00:00,
2013-03-23 00:05:00,30.4,17.7,30.05,NNW,338,0.0,0.0,59,0.00,BKN,SCT,0.00,0.0,WeatherDisplay:10.37,2013-03-23 04:05:00,
2013-03-23 00:10:00,30.6,17.9,30.05,NNW,338,0.0,0.0,59,0.00,BKN,SCT,0.00,0.0,WeatherDisplay:10.37,2013-03-23 04:10:00,
2013-03-23 00:15:00,30.7,18.0,30.05,NNW,338,0.0,0.0,59,0.00,BKN,SCT,0.00,0.0,WeatherDisplay:10.37,2013-03-23 04:15:00,
2013-03-23 00:20:00,30.7,18.1,30.05,NNW,338,0.0,0.0,59,0.00,BKN,SCT,0.00,0.0,WeatherDisplay:10.37,2013-03-23 04:20:00,
2013-03-23 00:25:00,30.7,18.1,30.05,NNW,338,0.0,0.0,59,0.00,BKN,SCT,0.00,0.0,WeatherDisplay:10.37,2013-03-23 04:25:00,
2013-03-23 00:30:00,30.9,18.3,30.05,NNW,338,0.0,0.0,59,0.00,BKN,SCT,0.00,0.0,WeatherDisplay:10.37,2013-03-23 04:30:00,
2013-03-23 00:35:00,31.0,18.3,30.04,NNW,338,0.0,0.0,59,0.00,BKN,SCT,0.00,0.0,WeatherDisplay:10.37,2013-03-23 04:35:00,
2013-03-23 00:40:00,31.1,18.8,30.04,NNW,338,0.0,0.0,60,0.00,BKN,SCT,0.00,0.0,WeatherDisplay:10.37,2013-03-23 04:40:00,
2013-03-23 00:49:00,31.3,19.0,30.05,NNW,338,0.0,0.0,60,0.00,BKN,SCT,0.00,0.0,WeatherDisplay:10.37,2013-03-23 04:49:00,
2013-03-23 00:54:00,31.3,19.0,30.05,NNW,338,0.0,0.0,60,0.00,BKN,SCT,0.00,0.0,WeatherDisplay:10.37,2013-03-23 04:54:00,
2013-03-23 00:59:00,31.3,19.4,30.05,NNW,338,0.0,0.0,61,0.00,BKN,SCT,0.00,0.0,WeatherDisplay:10.37,2013-03-23 04:59:00,
2013-03-23 01:04:00,31.3,19.4,30.04,NNW,338,0.0,0.0,61,0.00,BKN,SCT,0.00,0.0,WeatherDisplay:10.37,2013-03-23 05:04:00,
2013-03-23 01:09:00,31.3,19.4,30.04,NNW,338,0.0,0.0,61,0.00,BKN,SCT,0.00,0.0,WeatherDisplay:10.37,2013-03-23 05:09:00,
2013-03-23 01:14:00,31.3,19.4,30.05,NNW,338,0.0,0.0,61,0.00,BKN,SCT,0.00,0.0,WeatherDisplay:10.37,2013-03-23 05:14:00,
2013-03-23 01:19:00,31.3,19.8,30.04,NNW,338,0.0,0.0,62,0.00,BKN,SCT,0.00,0.0,WeatherDisplay:10.37,2013-03-23 05:19:00,
2013-03-23 01:24:00,31.3,19.8,30.05,NNW,338,0.0,0.0,62,0.00,BKN,SCT,0.00,0.0,WeatherDisplay:10.37,2013-03-23 05:24:00,
2013-03-23 01:29:00,31.3,19.8,30.05,NNW,338,0.0,0.0,62,0.00,BKN,SCT,0.00,0.0,WeatherDisplay:10.37,2013-03-23 05:29:00,
2013-03-23 01:34:00,31.3,20.1,30.05,NNW,338,0.0,0.0,63,0.00,BKN,SCT,0.00,0.0,WeatherDisplay:10.37,2013-03-23 05:34:00,
2013-03-23 01:40:00,31.3,20.1,30.05,NNW,338,0.0,0.0,63,0.00,BKN,SCT,0.00,0.0,WeatherDisplay:10.37,2013-03-23 05:40:00,
2013-03-23 01:45:00,31.3,20.1,30.05,NNW,338,0.0,0.0,63,0.00,BKN,SCT,0.00,0.0,WeatherDisplay:10.37,2013-03-23 05:45:00,
2013-03-23 01:50:00,31.3,20.1,30.05,NNW,338,0.0,0.0,63,0.00,BKN,SCT,0.00,0.0,WeatherDisplay:10.37,2013-03-23 05:50:00,
2013-03-23 01:55:00,31.3,20.5,30.04,NNW,338,0.0,0.0,64,0.00,BKN,SCT,0.00,0.0,WeatherDisplay:10.37,2013-03-23 05:55:00,
2013-03-23 02:00:00,31.3,20.5,30.04,NNW,338,0.0,0.0,64,0.00,BKN,SCT,0.00,0.0,WeatherDisplay:10.37,2013-03-23 06:00:00,
2013-03-23 02:05:00,31.3,20.5,30.04,NNW,338,0.0,0.0,64,0.00,OVC,SCT,0.00,0.0,WeatherDisplay:10.37,2013-03-23 06:05:00,
2013-03-23 02:10:00,31.3,20.5,30.05,NNW,338,0.0,0.0,64,0.00,OVC,SCT,0.00,0.0,WeatherDisplay:10.37,2013-03-23 06:10:00,
2013-03-23 02:15:00,31.5,20.7,30.05,NNW,338,0.0,0.0,64,0.00,OVC,SCT,0.00,0.0,WeatherDisplay:10.37,2013-03-23 06:15:00,
2013-03-23 02:20:00,31.6,20.8,30.05,NNW,338,0.0,0.0,64,0.00,OVC,SCT,0.00,0.0,WeatherDisplay:10.37,2013-03-23 06:20:00,
2013-03-23 02:25:00,31.6,21.2,30.05,NNW,338,0.0,0.0,65,0.00,OVC,SCT,0.00,0.0,WeatherDisplay:10.37,2013-03-23 06:25:00,
2013-03-23 02:30:00,31.6,21.2,30.05,NNW,338,0.0,0.0,65,0.00,OVC,SCT,0.00,0.0,WeatherDisplay:10.37,2013-03-23 06:30:00,
2013-03-23 02:35:00,31.6,21.2,30.06,NNW,338,0.0,0.0,65,0.00,OVC,SCT,0.00,0.0,WeatherDisplay:10.37,2013-03-23 06:35:00,
2013-03-23 02:40:00,31.8,21.3,30.05,NNW,338,0.0,0.0,65,0.00,OVC,SCT,0.00,0.0,WeatherDisplay:10.37,2013-03-23 06:40:00,
2013-03-23 02:45:00,31.8,21.4,30.06,NNW,338,0.0,0.0,65,0.00,OVC,SCT,0.00,0.0,WeatherDisplay:10.37,2013-03-23 06:45:00,
2013-03-23 02:50:00,31.8,21.4,30.05,NNW,338,0.0,0.0,65,0.00,OVC,SCT,0.00,0.0,WeatherDisplay:10.37,2013-03-23 06:50:00,
2013-03-23 02:55:00,31.8,21.4,30.05,NNW,338,0.0,0.0,65,0.00,OVC,SCT,0.00,0.0,WeatherDisplay:10.37,2013-03-23 06:55:00,
2013-03-23 03:00:00,31.8,21.7,30.04,NNW,338,0.0,0.0,66,0.00,OVC,SCT,0.00,0.0,WeatherDisplay:10.37,2013-03-23 07:00:00,
2013-03-23 03:05:00,31.8,21.7,30.04,NNW,338,0.0,0.0,66,0.00,OVC,SCT,0.00,0.0,WeatherDisplay:10.37,2013-03-23 07:05:00,
2013-03-23 03:10:00,31.8,21.7,30.04,NNW,338,0.0,0.0,66,0.00,OVC,SCT,0.00,0.0,WeatherDisplay:10.37,2013-03-23 07:10:00,
2013-03-23 03:15:00,32.2,22.1,30.05,NNW,338,0.0,0.0,66,0.00,OVC,SCT,0.00,0.0,WeatherDisplay:10.37,2013-03-23 07:15:00,
2013-03-23 03:20:00,32.2,22.1,30.05,NNW,338,0.0,0.0,66,0.00,OVC,SCT,0.00,0.0,WeatherDisplay:10.37,2013-03-23 07:20:00,
2013-03-23 03:25:00,32.3,22.3,30.05,NNW,338,0.0,0.0,66,0.00,OVC,SCT,0.00,0.0,WeatherDisplay:10.37,2013-03-23 07:25:00,
2013-03-23 03:30:00,32.4,22.3,30.05,NNW,338,0.0,0.0,66,0.00,OVC,SCT,0.00,0.0,WeatherDisplay:10.37,2013-03-23 07:30:00,
2013-03-23 03:35:00,32.4,22.3,30.05,NNW,338,0.0,0.0,66,0.00,OVC,SCT,0.00,0.0,WeatherDisplay:10.37,2013-03-23 07:35:00,
2013-03-23 03:40:00,32.5,22.4,30.04,NNW,338,0.0,0.0,66,0.00,OVC,SCT,0.00,0.0,WeatherDisplay:10.37,2013-03-23 07:40:00,
2013-03-23 03:45:00,32.5,22.4,30.05,NNW,338,0.0,0.0,66,0.00,OVC,SCT,0.00,0.0,WeatherDisplay:10.37,2013-03-23 07:45:00,
2013-03-23 03:50:00,32.5,22.4,30.04,NNW,338,0.0,0.0,66,0.00,OVC,SCT,0.00,0.0,WeatherDisplay:10.37,2013-03-23 07:50:00,
2013-03-23 03:55:00,32.5,22.4,30.04,NNW,338,0.0,0.0,66,0.00,OVC,SCT,0.00,0.0,WeatherDisplay:10.37,2013-03-23 07:55:00,
2013-03-23 04:00:00,32.5,22.4,30.05,NNW,338,0.0,0.0,66,0.00,OVC,SCT,0.00,0.0,WeatherDisplay:10.37,2013-03-23 08:00:00,
2013-03-23 04:05:00,32.5,22.8,30.04,NNW,338,0.0,0.0,67,0.00,OVC,SCT,0.00,0.0,WeatherDisplay:10.37,2013-03-23 08:05:00,
2013-03-23 04:10:00,32.5,22.8,30.05,NNW,338,0.0,0.0,67,0.00,OVC,SCT,0.00,0.0,WeatherDisplay:10.37,2013-03-23 08:10:00,
2013-03-23 04:15:00,32.7,23.0,30.05,NNW,338,0.0,0.0,67,0.00,OVC,SCT,0.00,0.0,WeatherDisplay:10.37,2013-03-23 08:15:00,
2013-03-23 04:20:00,32.7,23.0,30.04,NNW,338,0.0,0.0,67,0.00,OVC,SCT,0.00,0.0,WeatherDisplay:10.37,2013-03-23 08:20:00,
2013-03-23 04:25:00,32.7,23.0,30.04,NNW,338,0.0,0.0,67,0.00,OVC,SCT,0.00,0.0,WeatherDisplay:10.37,2013-03-23 08:25:00,
2013-03-23 04:30:00,32.7,23.0,30.04,NNW,342,0.0,0.0,67,0.00,OVC,SCT,0.00,0.0,WeatherDisplay:10.37,2013-03-23 08:30:00,
2013-03-23 04:35:00,32.7,23.0,30.04,North,353,0.0,0.0,67,0.00,OVC,SCT,0.00,0.0,WeatherDisplay:10.37,2013-03-23 08:35:00,
2013-03-23 04:40:00,32.7,22.6,30.04,North,9,0.0,0.0,66,0.00,OVC,SCT,0.00,0.0,WeatherDisplay:10.37,2013-03-23 08:40:00,
2013-03-23 04:49:00,32.9,22.8,30.03,NNE,23,0.0,0.0,66,0.00,OVC,SCT,0.00,0.0,WeatherDisplay:10.37,2013-03-23 08:49:00,
2013-03-23 04:54:00,32.7,22.6,30.03,NNE,23,0.0,0.0,66,0.00,OVC,SCT,0.00,0.0,WeatherDisplay:10.37,2013-03-23 08:54:00,
2013-03-23 04:59:00,32.8,22.3,30.03,NNE,25,1.0,3.0,65,0.00,OVC,SCT,0.00,0.0,WeatherDisplay:10.37,2013-03-23 08:59:00,
2013-03-23 05:04:00,32.7,22.2,30.03,NNE,29,0.0,0.0,65,0.00,OVC,SCT,0.00,0.0,WeatherDisplay:10.37,2013-03-23 09:04:00,
2013-03-23 05:09:00,32.7,22.2,30.03,NNE,29,0.0,1.0,65,0.00,OVC,SCT,0.00,0.0,WeatherDisplay:10.37,2013-03-23 09:09:00,
2013-03-23 05:14:00,32.7,22.2,30.03,NNE,29,0.0,0.0,65,0.00,OVC,SCT,0.00,0.0,WeatherDisplay:10.37,2013-03-23 09:14:00,
2013-03-23 05:19:00,32.7,22.2,30.03,NE,39,0.0,0.0,65,0.00,OVC,SCT,0.00,0.0,WeatherDisplay:10.37,2013-03-23 09:19:00,
2013-03-23 05:24:00,32.7,22.2,30.03,NE,46,0.0,0.0,65,0.00,OVC,SCT,0.00,0.0,WeatherDisplay:10.37,2013-03-23 09:24:00,
2013-03-23 05:29:00,32.5,22.1,30.03,NE,42,0.0,0.0,65,0.00,OVC,SCT,0.00,0.0,WeatherDisplay:10.37,2013-03-23 09:29:00,
2013-03-23 05:34:00,32.5,22.1,30.03,NE,36,0.0,0.0,65,0.00,OVC,SCT,0.00,0.0,WeatherDisplay:10.37,2013-03-23 09:34:00,
2013-03-23 05:40:00,32.6,22.1,30.04,NE,38,0.0,0.0,65,0.00,OVC,SCT,0.00,0.0,WeatherDisplay:10.37,2013-03-23 09:40:00,
2013-03-23 05:45:00,32.5,22.1,30.03,NE,40,0.0,0.0,65,0.00,OVC,SCT,0.00,0.0,WeatherDisplay:10.37,2013-03-23 09:45:00,
2013-03-23 05:50:00,32.5,22.1,30.03,NE,47,0.0,0.0,65,0.00,OVC,SCT,0.00,0.0,WeatherDisplay:10.37,2013-03-23 09:50:00,
2013-03-23 05:55:00,32.5,21.7,30.03,ENE,58,0.0,0.0,64,0.00,OVC,SCT,0.00,0.0,WeatherDisplay:10.37,2013-03-23 09:55:00,
2013-03-23 06:00:00,32.5,21.7,30.03,NE,51,0.0,0.0,64,0.00,OVC,SCT,0.00,0.0,WeatherDisplay:10.37,2013-03-23 10:00:00,
2013-03-23 06:05:00,32.5,21.7,30.03,NE,47,0.0,0.0,64,0.00,OVC,SCT,0.00,0.0,WeatherDisplay:10.37,2013-03-23 10:05:00,
2013-03-23 06:10:00,32.5,21.6,30.03,NE,52,0.0,0.0,64,0.00,OVC,SCT,0.00,0.0,WeatherDisplay:10.37,2013-03-23 10:10:00,
2013-03-23 06:15:00,32.4,21.5,30.04,NE,37,0.0,0.0,64,0.00,OVC,SCT,0.00,0.0,WeatherDisplay:10.37,2013-03-23 10:15:00,
2013-03-23 06:20:00,32.4,21.2,30.04,NNE,23,0.0,0.0,63,0.00,OVC,SCT,0.00,0.0,WeatherDisplay:10.37,2013-03-23 10:20:00,
2013-03-23 06:25:00,32.4,21.2,30.04,NE,34,0.0,0.0,63,0.00,OVC,SCT,0.00,0.0,WeatherDisplay:10.37,2013-03-23 10:25:00,
2013-03-23 06:30:00,32.4,21.2,30.04,NNE,33,0.0,0.0,63,0.00,OVC,SCT,0.00,0.0,WeatherDisplay:10.37,2013-03-23 10:30:00,
2013-03-23 06:40:00,32.4,21.2,30.04,NNE,22,0.0,0.0,63,0.00,OVC,SCT,0.00,0.0,WeatherDisplay:10.37,2013-03-23 10:40:00,
2013-03-23 06:45:00,32.4,21.2,30.04,NNE,22,0.0,0.0,63,0.00,OVC,SCT,0.00,0.0,WeatherDisplay:10.37,2013-03-23 10:45:00,
2013-03-23 06:50:00,32.3,21.1,30.05,NNE,22,0.0,0.0,63,0.00,OVC,SCT,0.00,0.0,WeatherDisplay:10.37,2013-03-23 10:50:00,
2013-03-23 06:55:00,32.2,21.0,30.05,NNE,22,0.0,0.0,63,0.00,OVC,SCT,0.00,0.0,WeatherDisplay:10.37,2013-03-23 10:55:00,
2013-03-23 07:00:00,32.2,21.0,30.04,NNE,25,0.0,0.0,63,0.00,OVC,SCT,0.00,0.0,WeatherDisplay:10.37,2013-03-23 11:00:00,
2013-03-23 07:05:00,32.2,21.0,30.04,NNE,22,0.0,0.0,63,0.00,OVC,SCT,0.00,0.0,WeatherDisplay:10.37,2013-03-23 11:05:00,
2013-03-23 07:10:00,32.2,21.0,30.05,NNE,22,0.0,0.0,63,0.00,OVC,SCT,0.00,0.0,WeatherDisplay:10.37,2013-03-23 11:10:00,
2013-03-23 07:15:00,32.2,21.0,30.05,NNE,31,0.0,0.0,63,0.00,OVC,SCT,0.00,0.0,WeatherDisplay:10.37,2013-03-23 11:15:00,
2013-03-23 07:20:00,32.2,21.0,30.06,NNE,26,0.0,0.0,63,0.00,OVC,SCT,0.00,0.0,WeatherDisplay:10.37,2013-03-23 11:20:00,
2013-03-23 07:25:00,32.1,21.3,30.06,NNE,27,0.0,0.0,64,0.00,OVC,SCT,0.00,0.0,WeatherDisplay:10.37,2013-03-23 11:25:00,
2013-03-23 07:30:00,32.0,21.2,30.06,NE,39,0.0,0.0,64,0.00,OVC,SCT,0.00,0.0,WeatherDisplay:10.37,2013-03-23 11:30:00,
2013-03-23 07:40:00,31.9,21.1,30.06,NNE,28,0.0,0.0,64,0.00,OVC,SCT,0.00,0.0,WeatherDisplay:10.37,2013-03-23 11:40:00,
2013-03-23 07:45:00,31.8,21.0,30.06,NNE,22,0.0,0.0,64,0.00,OVC,SCT,0.00,0.0,WeatherDisplay:10.37,2013-03-23 11:45:00,
2013-03-23 07:50:00,31.8,21.0,30.06,NE,36,0.0,0.0,64,0.00,OVC,SCT,0.00,0.0,WeatherDisplay:10.37,2013-03-23 11:50:00,
2013-03-23 07:55:00,31.8,21.0,30.07,NE,37,0.0,0.0,64,0.00,OVC,SCT,0.00,0.0,WeatherDisplay:10.37,2013-03-23 11:55:00,
2013-03-23 08:00:00,31.8,21.0,30.07,NNE,25,0.0,0.0,64,0.00,OVC,SCT,0.00,0.0,WeatherDisplay:10.37,2013-03-23 12:00:00,
2013-03-23 08:05:00,31.8,21.0,30.08,NNE,22,0.0,0.0,64,0.00,OVC,SCT,0.00,0.0,WeatherDisplay:10.37,2013-03-23 12:05:00,
2013-03-23 08:15:00,31.8,21.0,30.07,NNE,22,0.0,0.0,64,0.00,OVC,SCT,0.00,0.0,WeatherDisplay:10.37,2013-03-23 12:15:00,
2013-03-23 08:20:00,31.8,21.0,30.07,NNE,23,0.0,0.0,64,0.00,OVC,SCT,0.00,0.0,WeatherDisplay:10.37,2013-03-23 12:20:00,
2013-03-23 08:25:00,32.1,21.6,30.07,NNE,30,0.0,0.0,65,0.00,OVC,SCT,0.00,0.0,WeatherDisplay:10.37,2013-03-23 12:25:00,
2013-03-23 08:30:00,32.2,21.7,30.07,NE,55,0.0,0.0,65,0.00,OVC,SCT,0.00,0.0,WeatherDisplay:10.37,2013-03-23 12:30:00,
2013-03-23 08:40:00,32.4,21.5,30.08,NE,50,0.0,0.0,64,0.00,OVC,SCT,0.00,0.0,WeatherDisplay:10.37,2013-03-23 12:40:00,
2013-03-23 08:45:00,32.5,21.7,30.07,NE,44,0.0,0.0,64,0.00,OVC,SCT,0.00,0.0,WeatherDisplay:10.37,2013-03-23 12:45:00,
2013-03-23 08:54:00,32.7,21.5,30.08,NE,53,0.0,0.0,63,0.00,OVC,SCT,0.00,0.0,WeatherDisplay:10.37,2013-03-23 12:54:00,
2013-03-23 09:04:00,32.9,21.7,30.09,ENE,65,0.0,0.0,63,0.00,OVC,SCT,0.00,0.0,WeatherDisplay:10.37,2013-03-23 13:04:00,
2013-03-23 09:09:00,33.1,21.9,30.08,ENE,64,0.0,0.0,63,0.00,OVC,SCT,0.00,0.0,WeatherDisplay:10.37,2013-03-23 13:09:00,
2013-03-23 09:14:00,33.4,22.2,30.09,ENE,65,0.0,0.0,63,0.00,OVC,SCT,0.00,0.0,WeatherDisplay:10.37,2013-03-23 13:14:00,
2013-03-23 09:19:00,33.6,22.4,30.09,ENE,65,0.0,1.0,63,0.00,OVC,SCT,0.00,0.0,WeatherDisplay:10.37,2013-03-23 13:19:00,
2013-03-23 09:24:00,34.0,22.3,30.09,ENE,74,0.0,0.0,62,0.00,OVC,SCT,0.00,0.0,WeatherDisplay:10.37,2013-03-23 13:24:00,
2013-03-23 09:29:00,34.3,22.7,30.08,ENE,78,0.0,0.0,62,0.00,OVC,SCT,0.00,0.0,WeatherDisplay:10.37,2013-03-23 13:29:00,
2013-03-23 09:34:00,34.3,22.3,30.08,ENE,66,0.0,1.0,61,0.00,OVC,SCT,0.00,0.0,WeatherDisplay:10.37,2013-03-23 13:34:00,
2013-03-23 09:40:00,34.6,22.1,30.08,ENE,63,0.0,5.0,60,0.00,OVC,SCT,0.00,0.0,WeatherDisplay:10.37,2013-03-23 13:40:00,
2013-03-23 09:45:00,34.9,22.4,30.08,ENE,70,0.0,1.0,60,0.00,OVC,SCT,0.00,0.0,WeatherDisplay:10.37,2013-03-23 13:45:00,
2013-03-23 09:50:00,35.1,22.6,30.08,ENE,64,0.0,2.0,60,0.00,OVC,SCT,0.00,0.0,WeatherDisplay:10.37,2013-03-23 13:50:00,
2013-03-23 09:55:00,35.4,22.5,30.08,NE,54,2.0,5.0,59,0.00,OVC,SCT,0.00,0.0,WeatherDisplay:10.37,2013-03-23 13:55:00,
2013-03-23 10:00:00,35.8,22.4,30.08,ENE,60,0.0,4.0,58,0.00,OVC,SCT,0.00,0.0,WeatherDisplay:10.37,2013-03-23 14:00:00,
2013-03-23 10:05:00,35.9,22.5,30.09,East,79,0.0,0.0,58,0.00,OVC,SCT,0.00,0.0,WeatherDisplay:10.37,2013-03-23 14:05:00,
2013-03-23 10:10:00,36.3,22.5,30.08,East,92,0.0,1.0,57,0.00,OVC,SCT,0.00,0.0,WeatherDisplay:10.37,2013-03-23 14:10:00,
2013-03-23 10:15:00,36.5,22.3,30.08,ENE,63,0.0,1.0,56,0.00,OVC,SCT,0.00,0.0,WeatherDisplay:10.37,2013-03-23 14:15:00,
2013-03-23 10:20:00,36.7,22.4,30.08,NE,54,0.0,0.0,56,0.00,OVC,SCT,0.00,0.0,WeatherDisplay:10.37,2013-03-23 14:20:00,
2013-03-23 10:25:00,37.0,22.8,30.08,East,93,0.0,2.0,56,0.00,OVC,SCT,0.00,0.0,WeatherDisplay:10.37,2013-03-23 14:25:00,
2013-03-23 10:30:00,37.6,23.3,30.09,ENE,66,0.0,0.0,56,0.00,OVC,SCT,0.00,0.0,WeatherDisplay:10.37,2013-03-23 14:30:00,
2013-03-23 10:35:00,38.1,23.7,30.08,ENE,63,0.0,0.0,56,0.00,OVC,SCT,0.00,0.0,WeatherDisplay:10.37,2013-03-23 14:35:00,
2013-03-23 10:40:00,38.4,23.7,30.09,ENE,70,0.0,0.0,55,0.00,OVC,SCT,0.00,0.0,WeatherDisplay:10.37,2013-03-23 14:40:00,
2013-03-23 10:45:00,38.5,23.8,30.08,ENE,59,0.0,0.0,55,0.00,OVC,SCT,0.00,0.0,WeatherDisplay:10.37,2013-03-23 14:45:00,
2013-03-23 10:50:00,38.8,23.6,30.09,East,86,0.0,0.0,54,0.00,OVC,SCT,0.00,0.0,WeatherDisplay:10.37,2013-03-23 14:50:00,
2013-03-23 10:55:00,38.8,23.6,30.08,East,90,0.0,0.0,54,0.00,OVC,SCT,0.00,0.0,WeatherDisplay:10.37,2013-03-23 14:55:00,
2013-03-23 11:00:00,38.8,23.6,30.09,East,100,0.0,0.0,54,0.00,OVC,SCT,0.00,0.0,WeatherDisplay:10.37,2013-03-23 15:00:00,
2013-03-23 11:05:00,38.8,23.6,30.09,ESE,102,0.0,0.0,54,0.00,OVC,SCT,0.00,0.0,WeatherDisplay:10.37,2013-03-23 15:05:00,
2013-03-23 11:10:00,39.0,23.8,30.09,ESE,105,0.0,0.0,54,0.00,OVC,SCT,0.00,0.0,WeatherDisplay:10.37,2013-03-23 15:10:00,
2013-03-23 11:20:00,39.4,23.7,30.09,NE,54,0.0,0.0,53,0.00,OVC,SCT,0.00,0.0,WeatherDisplay:10.37,2013-03-23 15:20:00,
2013-03-23 11:25:00,39.5,23.3,30.09,NE,47,0.0,0.0,52,0.00,OVC,SCT,0.00,0.0,WeatherDisplay:10.37,2013-03-23 15:25:00,
2013-03-23 11:30:00,39.8,23.6,30.09,ENE,74,0.0,0.0,52,0.00,OVC,SCT,0.00,0.0,WeatherDisplay:10.37,2013-03-23 15:30:00,
2013-03-23 11:35:00,40.1,23.9,30.09,East,81,0.0,0.0,52,0.00,OVC,SCT,0.00,0.0,WeatherDisplay:10.37,2013-03-23 15:35:00,
2013-03-23 11:40:00,40.3,24.1,30.09,ENE,78,0.0,0.0,52,0.00,OVC,SCT,0.00,0.0,WeatherDisplay:10.37,2013-03-23 15:40:00,
2013-03-23 11:45:00,41.0,24.7,30.09,East,90,0.0,0.0,52,0.00,OVC,SCT,0.00,0.0,WeatherDisplay:10.37,2013-03-23 15:45:00,
2013-03-23 11:50:00,42.3,25.9,30.09,ENE,72,0.0,0.0,52,0.00,OVC,SCT,0.00,0.0,WeatherDisplay:10.37,2013-03-23 15:50:00,
2013-03-23 11:55:00,43.0,26.1,30.09,ENE,57,0.0,0.0,51,0.00,OVC,SCT,0.00,0.0,WeatherDisplay:10.37,2013-03-23 15:55:00,
2013-03-23 12:00:00,43.5,26.1,30.09,ENE,61,1.0,1.0,50,0.00,OVC,SCT,0.00,0.0,WeatherDisplay:10.37,2013-03-23 16:00:00,
2013-03-23 12:05:00,43.5,26.1,30.09,ENE,71,0.0,2.0,50,0.00,OVC,SCT,0.00,0.0,WeatherDisplay:10.37,2013-03-23 16:05:00,
2013-03-23 12:10:00,44.3,26.8,30.08,East,94,0.0,0.0,50,0.00,OVC,SCT,0.00,0.0,WeatherDisplay:10.37,2013-03-23 16:10:00,
2013-03-23 12:15:00,45.0,26.5,30.08,East,79,0.0,0.0,48,0.00,OVC,SCT,0.00,0.0,WeatherDisplay:10.37,2013-03-23 16:15:00,
2013-03-23 12:20:00,45.6,27.0,30.08,East,82,1.0,1.0,48,0.00,BKN,SCT,0.00,0.0,WeatherDisplay:10.37,2013-03-23 16:20:00,
2013-03-23 12:25:00,46.2,27.1,30.08,ENE,70,0.0,2.0,47,0.00,BKN,SCT,0.00,0.0,WeatherDisplay:10.37,2013-03-23 16:25:00,
2013-03-23 12:30:00,46.6,27.5,30.08,NNW,327,0.0,2.0,47,0.00,BKN,SCT,0.00,0.0,WeatherDisplay:10.37,2013-03-23 16:30:00,
2013-03-23 12:35:00,47.3,27.0,30.08,NE,34,0.0,0.0,45,0.00,BKN,SCT,0.00,0.0,WeatherDisplay:10.37,2013-03-23 16:35:00,
2013-03-23 12:40:00,47.3,27.0,30.08,NE,35,0.0,1.0,45,0.00,BKN,SCT,0.00,0.0,WeatherDisplay:10.37,2013-03-23 16:40:00,
2013-03-23 12:49:00,48.0,27.1,30.08,East,94,0.0,0.0,44,0.00,BKN,SCT,0.00,0.0,WeatherDisplay:10.37,2013-03-23 16:49:00,
2013-03-23 12:54:00,48.3,26.8,30.08,ESE,116,0.0,2.0,43,0.00,BKN,SCT,0.00,0.0,WeatherDisplay:10.37,2013-03-23 16:54:00,
2013-03-23 13:04:00,48.7,27.2,30.08,NE,41,0.0,6.0,43,0.00,BKN,SCT,0.00,0.0,WeatherDisplay:10.37,2013-03-23 17:04:00,
2013-03-23 13:09:00,48.7,27.7,30.08,North,357,3.0,6.0,44,0.00,BKN,SCT,0.00,0.0,WeatherDisplay:10.37,2013-03-23 17:09:00,
2013-03-23 13:14:00,49.1,28.1,30.08,North,2,0.0,6.0,44,0.00,BKN,SCT,0.00,0.0,WeatherDisplay:10.37,2013-03-23 17:14:00,
2013-03-23 13:19:00,49.1,27.5,30.08,NE,53,0.0,5.0,43,0.00,FEW,SCT,0.00,0.0,WeatherDisplay:10.37,2013-03-23 17:19:00,
2013-03-23 13:24:00,49.6,28.0,30.08,NW,319,1.0,5.0,43,0.00,FEW,SCT,0.00,0.0,WeatherDisplay:10.37,2013-03-23 17:24:00,
2013-03-23 13:29:00,49.8,27.6,30.08,NW,316,0.0,7.0,42,0.00,FEW,SCT,0.00,0.0,WeatherDisplay:10.37,2013-03-23 17:29:00,
2013-03-23 13:34:00,49.8,27.6,30.07,NW,321,1.0,7.0,42,0.00,FEW,SCT,0.00,0.0,WeatherDisplay:10.37,2013-03-23 17:34:00,
2013-03-23 13:40:00,49.6,27.5,30.07,NNW,344,0.0,3.0,42,0.00,FEW,SCT,0.00,0.0,WeatherDisplay:10.37,2013-03-23 17:40:00,
2013-03-23 13:45:00,49.6,27.4,30.07,NNW,332,5.0,6.0,42,0.00,FEW,SCT,0.00,0.0,WeatherDisplay:10.37,2013-03-23 17:45:00,
2013-03-23 13:50:00,49.6,27.5,30.07,NNW,346,2.0,7.0,42,0.00,FEW,SCT,0.00,0.0,WeatherDisplay:10.37,2013-03-23 17:50:00,
2013-03-23 13:55:00,49.3,26.5,30.06,North,5,1.0,5.0,41,0.00,FEW,SCT,0.00,0.0,WeatherDisplay:10.37,2013-03-23 17:55:00,
2013-03-23 14:05:00,49.1,25.8,30.06,NNW,345,3.0,8.0,40,0.00,CLR,SCT,0.00,0.0,WeatherDisplay:10.37,2013-03-23 18:05:00,
2013-03-23 14:10:00,48.7,25.5,30.06,North,4,0.0,7.0,40,0.00,CLR,SCT,0.00,0.0,WeatherDisplay:10.37,2013-03-23 18:10:00,
2013-03-23 14:15:00,48.7,25.5,30.06,NNE,15,0.0,6.0,40,0.00,CLR,SCT,0.00,0.0,WeatherDisplay:10.37,2013-03-23 18:15:00,
2013-03-23 14:20:00,48.7,26.1,30.05,NW,324,5.0,8.0,41,0.00,CLR,SCT,0.00,0.0,WeatherDisplay:10.37,2013-03-23 18:20:00,
2013-03-23 14:25:00,49.0,26.3,30.05,NW,306,0.0,2.0,41,0.00,CLR,SCT,0.00,0.0,WeatherDisplay:10.37,2013-03-23 18:25:00,
2013-03-23 14:30:00,49.5,27.3,30.05,NNW,340,6.0,8.0,42,0.00,CLR,SCT,0.00,0.0,WeatherDisplay:10.37,2013-03-23 18:30:00,
2013-03-23 14:35:00,49.3,27.1,30.05,North,351,2.0,8.0,42,0.00,CLR,SCT,0.00,0.0,WeatherDisplay:10.37,2013-03-23 18:35:00,
2013-03-23 14:40:00,49.1,27.0,30.05,NNE,16,0.0,7.0,42,0.00,CLR,SCT,0.00,0.0,WeatherDisplay:10.37,2013-03-23 18:40:00,
2013-03-23 14:50:00,49.8,27.6,30.05,WNW,288,2.0,3.0,42,0.00,CLR,SCT,0.00,0.0,WeatherDisplay:10.37,2013-03-23 18:50:00,
2013-03-23 14:55:00,50.4,27.5,30.05,NW,312,0.0,0.0,41,0.00,CLR,SCT,0.00,0.0,WeatherDisplay:10.37,2013-03-23 18:55:00,
2013-03-23 15:00:00,50.5,27.7,30.05,North,355,6.0,9.0,41,0.00,CLR,SCT,0.00,0.0,WeatherDisplay:10.37,2013-03-23 19:00:00,
2013-03-23 15:05:00,50.2,27.4,30.05,North,1,5.0,7.0,41,0.00,CLR,SCT,0.00,0.0,WeatherDisplay:10.37,2013-03-23 19:05:00,
2013-03-23 15:10:00,49.8,27.0,30.05,North,1,2.0,6.0,41,0.00,CLR,SCT,0.00,0.0,WeatherDisplay:10.37,2013-03-23 19:10:00,
2013-03-23 15:15:00,49.8,27.6,30.05,NNW,327,2.0,7.0,42,0.00,CLR,SCT,0.00,0.0,WeatherDisplay:10.37,2013-03-23 19:15:00,
2013-03-23 15:20:00,49.8,27.0,30.05,NNW,327,3.0,8.0,41,0.00,CLR,SCT,0.00,0.0,WeatherDisplay:10.37,2013-03-23 19:20:00,
2013-03-23 15:30:00,49.8,27.0,30.05,NW,325,0.0,6.0,41,0.00,CLR,SCT,0.00,0.0,WeatherDisplay:10.37,2013-03-23 19:30:00,
2013-03-23 15:35:00,50.3,28.0,30.05,NNW,338,3.0,8.0,42,0.00,CLR,SCT,0.00,0.0,WeatherDisplay:10.37,2013-03-23 19:35:00,
2013-03-23 15:40:00,50.3,28.0,30.04,NNW,340,2.0,7.0,42,0.00,CLR,SCT,0.00,0.0,WeatherDisplay:10.37,2013-03-23 19:40:00,
2013-03-23 15:45:00,50.1,27.3,30.04,North,353,2.0,6.0,41,0.00,CLR,SCT,0.00,0.0,WeatherDisplay:10.37,2013-03-23 19:45:00,
2013-03-23 15:50:00,49.7,27.0,30.04,North,359,1.0,2.0,41,0.00,CLR,SCT,0.00,0.0,WeatherDisplay:10.37,2013-03-23 19:50:00,
2013-03-23 16:00:00,49.1,26.4,30.03,NNE,27,2.0,6.0,41,0.00,CLR,SCT,0.00,0.0,WeatherDisplay:10.37,2013-03-23 20:00:00,
2013-03-23 16:05:00,49.1,26.4,30.03,NE,44,0.0,2.0,41,0.00,CLR,SCT,0.00,0.0,WeatherDisplay:10.37,2013-03-23 20:05:00,
2013-03-23 16:10:00,48.9,26.2,30.03,NE,56,0.0,3.0,41,0.00,CLR,SCT,0.00,0.0,WeatherDisplay:10.37,2013-03-23 20:10:00,
2013-03-23 16:20:00,48.8,26.1,30.03,NNE,26,7.0,10.0,41,0.00,CLR,SCT,0.00,0.0,WeatherDisplay:10.37,2013-03-23 20:20:00,
2013-03-23 16:25:00,48.7,26.1,30.03,NNE,24,2.0,6.0,41,0.00,CLR,SCT,0.00,0.0,WeatherDisplay:10.37,2013-03-23 20:25:00,
2013-03-23 16:30:00,48.6,25.9,30.02,NE,35,5.0,7.0,41,0.00,CLR,SCT,0.00,0.0,WeatherDisplay:10.37,2013-03-23 20:30:00,
2013-03-23 16:35:00,48.1,26.1,30.02,NE,38,2.0,6.0,42,0.00,CLR,SCT,0.00,0.0,WeatherDisplay:10.37,2013-03-23 20:35:00,
2013-03-23 16:40:00,48.2,26.2,30.02,NE,42,2.0,8.0,42,0.00,CLR,SCT,0.00,0.0,WeatherDisplay:10.37,2013-03-23 20:40:00,
2013-03-23 16:45:00,48.2,26.2,30.02,NNE,33,3.0,7.0,42,0.00,CLR,SCT,0.00,0.0,WeatherDisplay:10.37,2013-03-23 20:45:00,
2013-03-23 16:54:00,47.8,25.8,30.01,NNE,27,3.0,6.0,42,0.00,CLR,SCT,0.00,0.0,WeatherDisplay:10.37,2013-03-23 20:54:00,
2013-03-23 16:59:00,47.7,25.7,30.01,NE,44,3.0,7.0,42,0.00,CLR,SCT,0.00,0.0,WeatherDisplay:10.37,2013-03-23 20:59:00,
2013-03-23 17:04:00,47.5,25.5,30.01,NE,48,1.0,8.0,42,0.00,CLR,SCT,0.00,0.0,WeatherDisplay:10.37,2013-03-23 21:04:00,
2013-03-23 17:09:00,47.3,25.3,30.00,NE,35,2.0,6.0,42,0.00,CLR,SCT,0.00,0.0,WeatherDisplay:10.37,2013-03-23 21:09:00,
2013-03-23 17:14:00,47.3,25.3,30.00,NNE,14,2.0,6.0,42,0.00,CLR,SCT,0.00,0.0,WeatherDisplay:10.37,2013-03-23 21:14:00,
2013-03-23 17:19:00,47.3,25.3,30.00,NNE,18,1.0,6.0,42,0.00,CLR,SCT,0.00,0.0,WeatherDisplay:10.37,2013-03-23 21:19:00,
2013-03-23 17:24:00,47.1,25.2,30.00,NNE,25,0.0,6.0,42,0.00,CLR,SCT,0.00,0.0,WeatherDisplay:10.37,2013-03-23 21:24:00,
2013-03-23 17:29:00,47.3,25.9,30.01,NNE,29,0.0,2.0,43,0.00,CLR,SCT,0.00,0.0,WeatherDisplay:10.37,2013-03-23 21:29:00,
2013-03-23 17:34:00,47.1,25.7,30.01,NNE,32,5.0,7.0,43,0.00,CLR,SCT,0.00,0.0,WeatherDisplay:10.37,2013-03-23 21:34:00,
2013-03-23 17:40:00,47.1,25.7,30.01,NNE,16,0.0,6.0,43,0.00,CLR,SCT,0.00,0.0,WeatherDisplay:10.37,2013-03-23 21:40:00,
2013-03-23 17:45:00,46.9,26.1,30.01,North,9,0.0,4.0,44,0.00,CLR,SCT,0.00,0.0,WeatherDisplay:10.37,2013-03-23 21:45:00,
2013-03-23 17:50:00,47.0,26.2,30.01,NNE,23,0.0,3.0,44,0.00,CLR,SCT,0.00,0.0,WeatherDisplay:10.37,2013-03-23 21:50:00,
2013-03-23 17:55:00,46.9,26.1,30.00,NNE,26,0.0,2.0,44,0.00,CLR,SCT,0.00,0.0,WeatherDisplay:10.37,2013-03-23 21:55:00,
2013-03-23 18:00:00,46.9,26.1,30.00,NE,36,2.0,6.0,44,0.00,CLR,SCT,0.00,0.0,WeatherDisplay:10.37,2013-03-23 22:00:00,
2013-03-23 18:05:00,46.6,25.3,29.99,NNE,33,2.0,5.0,43,0.00,CLR,SCT,0.00,0.0,WeatherDisplay:10.37,2013-03-23 22:05:00,
2013-03-23 18:10:00,46.4,25.1,29.99,NNE,25,0.0,4.0,43,0.00,CLR,SCT,0.00,0.0,WeatherDisplay:10.37,2013-03-23 22:10:00,
2013-03-23 18:15:00,46.2,24.9,29.99,NE,42,0.0,4.0,43,0.00,CLR,SCT,0.00,0.0,WeatherDisplay:10.37,2013-03-23 22:15:00,
2013-03-23 18:20:00,46.0,25.3,29.99,NE,43,3.0,5.0,44,0.00,CLR,SCT,0.00,0.0,WeatherDisplay:10.37,2013-03-23 22:20:00,
2013-03-23 18:25:00,45.7,24.4,29.99,NNE,29,3.0,8.0,43,0.00,CLR,SCT,0.00,0.0,WeatherDisplay:10.37,2013-03-23 22:25:00,
2013-03-23 18:30:00,45.7,25.0,29.99,NE,38,1.0,8.0,44,0.00,CLR,SCT,0.00,0.0,WeatherDisplay:10.37,2013-03-23 22:30:00,
2013-03-23 18:35:00,45.7,25.0,29.99,ENE,57,2.0,7.0,44,0.00,CLR,SCT,0.00,0.0,WeatherDisplay:10.37,2013-03-23 22:35:00,
2013-03-23 18:40:00,45.5,24.8,29.99,ENE,60,1.0,7.0,44,0.00,CLR,SCT,0.00,0.0,WeatherDisplay:10.37,2013-03-23 22:40:00,
2013-03-23 18:50:00,45.3,24.6,30.00,NE,36,3.0,6.0,44,0.00,CLR,SCT,0.00,0.0,WeatherDisplay:10.37,2013-03-23 22:50:00,
2013-03-23 18:55:00,45.1,24.5,30.00,NE,48,0.0,5.0,44,0.00,CLR,SCT,0.00,0.0,WeatherDisplay:10.37,2013-03-23 22:55:00,
2013-03-23 19:00:00,45.0,24.3,30.00,NE,45,1.0,5.0,44,0.00,CLR,SCT,0.00,0.0,WeatherDisplay:10.37,2013-03-23 23:00:00,
2013-03-23 19:05:00,44.8,24.2,30.00,NE,42,1.0,5.0,44,0.00,CLR,SCT,0.00,0.0,WeatherDisplay:10.37,2013-03-23 23:05:00,
2013-03-23 19:10:00,44.8,24.2,30.00,NE,38,1.0,4.0,44,0.00,CLR,SCT,0.00,0.0,WeatherDisplay:10.37,2013-03-23 23:10:00,
2013-03-23 19:20:00,44.4,23.8,30.00,NNE,33,2.0,6.0,44,0.00,CLR,SCT,0.00,0.0,WeatherDisplay:10.37,2013-03-23 23:20:00,
2013-03-23 19:25:00,44.3,24.3,30.00,NE,47,2.0,6.0,45,0.00,CLR,SCT,0.00,0.0,WeatherDisplay:10.37,2013-03-23 23:25:00,
2013-03-23 19:30:00,43.9,23.9,30.00,NE,40,5.0,6.0,45,0.00,CLR,SCT,0.00,0.0,WeatherDisplay:10.37,2013-03-23 23:30:00,
2013-03-23 19:35:00,43.8,23.8,30.00,NNE,22,0.0,3.0,45,0.00,CLR,SCT,0.00,0.0,WeatherDisplay:10.37,2013-03-23 23:35:00,
2013-03-23 19:40:00,43.5,23.6,30.00,NE,34,0.0,4.0,45,0.00,CLR,SCT,0.00,0.0,WeatherDisplay:10.37,2013-03-23 23:40:00,
2013-03-23 19:50:00,43.3,23.9,30.00,NE,48,0.0,0.0,46,0.00,CLR,SCT,0.00,0.0,WeatherDisplay:10.37,2013-03-23 23:50:00,
2013-03-23 19:55:00,43.2,23.8,30.00,NE,43,0.0,2.0,46,0.00,CLR,SCT,0.00,0.0,WeatherDisplay:10.37,2013-03-23 23:55:00,
2013-03-23 20:00:00,42.9,23.5,29.99,NE,44,0.0,0.0,46,0.00,CLR,SCT,0.00,0.0,WeatherDisplay:10.37,2013-03-24 00:00:00,
2013-03-23 20:10:00,42.4,23.1,30.00,NE,46,0.0,0.0,46,0.00,CLR,SCT,0.00,0.0,WeatherDisplay:10.37,2013-03-24 00:10:00,
2013-03-23 20:15:00,42.1,22.8,29.99,NE,44,0.0,0.0,46,0.00,CLR,SCT,0.00,0.0,WeatherDisplay:10.37,2013-03-24 00:15:00,
2013-03-23 20:20:00,41.8,22.6,29.99,NE,39,0.0,0.0,46,0.00,SCT,SCT,0.00,0.0,WeatherDisplay:10.37,2013-03-24 00:20:00,
2013-03-23 20:30:00,41.4,22.6,29.99,NNE,33,0.0,0.0,47,0.00,SCT,SCT,0.00,0.0,WeatherDisplay:10.37,2013-03-24 00:30:00,
2013-03-23 20:35:00,41.2,22.5,29.99,NNE,27,0.0,0.0,47,0.00,SCT,SCT,0.00,0.0,WeatherDisplay:10.37,2013-03-24 00:35:00,
2013-03-23 20:40:00,41.0,22.3,29.99,NNE,32,0.0,6.0,47,0.00,SCT,SCT,0.00,0.0,WeatherDisplay:10.37,2013-03-24 00:40:00,
2013-03-23 20:45:00,40.8,22.6,29.99,NE,36,0.0,0.0,48,0.00,SCT,SCT,0.00,0.0,WeatherDisplay:10.37,2013-03-24 00:45:00,
2013-03-23 20:54:00,40.5,22.8,29.99,NE,42,0.0,2.0,49,0.00,SCT,SCT,0.00,0.0,WeatherDisplay:10.37,2013-03-24 00:54:00,
2013-03-23 20:59:00,40.3,22.6,29.98,NE,43,0.0,0.0,49,0.00,SCT,SCT,0.00,0.0,WeatherDisplay:10.37,2013-03-24 00:59:00,
2013-03-23 21:04:00,40.1,22.9,29.98,NE,38,0.0,0.0,50,0.00,BKN,SCT,0.00,0.0,WeatherDisplay:10.37,2013-03-24 01:04:00,
2013-03-23 21:09:00,39.9,22.8,29.98,NE,37,0.0,1.0,50,0.00,BKN,SCT,0.00,0.0,WeatherDisplay:10.37,2013-03-24 01:09:00,
2013-03-23 21:14:00,39.7,23.1,29.97,NE,41,0.0,2.0,51,0.00,BKN,SCT,0.00,0.0,WeatherDisplay:10.37,2013-03-24 01:14:00,
2013-03-23 21:19:00,39.7,23.1,29.97,NE,42,0.0,0.0,51,0.00,BKN,SCT,0.00,0.0,WeatherDisplay:10.37,2013-03-24 01:19:00,
2013-03-23 21:24:00,39.6,23.4,29.97,NE,45,0.0,0.0,52,0.00,BKN,SCT,0.00,0.0,WeatherDisplay:10.37,2013-03-24 01:24:00,
2013-03-23 21:29:00,39.4,23.2,29.97,NE,47,1.0,6.0,52,0.00,BKN,SCT,0.00,0.0,WeatherDisplay:10.37,2013-03-24 01:29:00,
2013-03-23 21:34:00,39.3,23.6,29.97,NE,45,0.0,3.0,53,0.00,BKN,SCT,0.00,0.0,WeatherDisplay:10.37,2013-03-24 01:34:00,
2013-03-23 21:40:00,39.0,23.3,29.97,NE,49,1.0,6.0,53,0.00,BKN,SCT,0.00,0.0,WeatherDisplay:10.37,2013-03-24 01:40:00,
2013-03-23 21:45:00,39.0,23.8,29.97,NE,52,0.0,6.0,54,0.00,BKN,SCT,0.00,0.0,WeatherDisplay:10.37,2013-03-24 01:45:00,
2013-03-23 21:55:00,38.8,23.6,29.97,NE,50,0.0,6.0,54,0.00,BKN,SCT,0.00,0.0,WeatherDisplay:10.37,2013-03-24 01:55:00,
2013-03-23 22:00:00,38.8,23.6,29.96,NE,54,1.0,5.0,54,0.00,BKN,SCT,0.00,0.0,WeatherDisplay:10.37,2013-03-24 02:00:00,
2013-03-23 22:05:00,38.5,23.7,29.96,NE,53,0.0,5.0,55,0.00,BKN,SCT,0.00,0.0,WeatherDisplay:10.37,2013-03-24 02:05:00,
2013-03-23 22:15:00,38.3,23.5,29.95,ENE,60,0.0,5.0,55,0.00,BKN,SCT,0.00,0.0,WeatherDisplay:10.37,2013-03-24 02:15:00,
2013-03-23 22:20:00,38.1,23.8,29.95,ENE,58,0.0,5.0,56,0.00,BKN,SCT,0.00,0.0,WeatherDisplay:10.37,2013-03-24 02:20:00,
2013-03-23 22:25:00,38.1,24.2,29.95,ENE,66,2.0,4.0,57,0.00,BKN,SCT,0.00,0.0,WeatherDisplay:10.37,2013-03-24 02:25:00,
2013-03-23 22:30:00,37.9,24.0,29.95,ENE,57,2.0,7.0,57,0.00,BKN,SCT,0.00,0.0,WeatherDisplay:10.37,2013-03-24 02:30:00,
2013-03-23 22:35:00,37.9,24.0,29.95,ENE,59,1.0,4.0,57,0.00,BKN,SCT,0.00,0.0,WeatherDisplay:10.37,2013-03-24 02:35:00,
2013-03-23 22:40:00,37.8,23.9,29.95,ENE,70,1.0,5.0,57,0.00,BKN,SCT,0.00,0.0,WeatherDisplay:10.37,2013-03-24 02:40:00,
2013-03-23 22:45:00,37.6,24.1,29.95,ENE,67,0.0,6.0,58,0.00,BKN,SCT,0.00,0.0,WeatherDisplay:10.37,2013-03-24 02:45:00,
2013-03-23 22:50:00,37.4,24.0,29.95,ENE,61,1.0,4.0,58,0.00,BKN,SCT,0.00,0.0,WeatherDisplay:10.37,2013-03-24 02:50:00,
2013-03-23 22:55:00,37.2,23.8,29.94,ENE,61,0.0,2.0,58,0.00,BKN,SCT,0.00,0.0,WeatherDisplay:10.37,2013-03-24 02:55:00,
2013-03-23 23:00:00,37.2,23.8,29.94,ENE,58,0.0,0.0,58,0.00,BKN,SCT,0.00,0.0,WeatherDisplay:10.37,2013-03-24 03:00:00,
2013-03-23 23:05:00,37.0,23.6,29.94,ENE,61,0.0,0.0,58,0.00,BKN,SCT,0.00,0.0,WeatherDisplay:10.37,2013-03-24 03:05:00,
2013-03-23 23:10:00,36.9,23.4,29.94,ENE,57,0.0,0.0,58,0.00,BKN,SCT,0.00,0.0,WeatherDisplay:10.37,2013-03-24 03:10:00,
2013-03-23 23:15:00,36.7,23.3,29.95,NE,53,0.0,0.0,58,0.00,BKN,SCT,0.00,0.0,WeatherDisplay:10.37,2013-03-24 03:15:00,
2013-03-23 23:20:00,36.5,23.1,29.95,ENE,60,0.0,0.0,58,0.00,SCT,SCT,0.00,0.0,WeatherDisplay:10.37,2013-03-24 03:20:00,
2013-03-23 23:25:00,36.3,23.3,29.95,ENE,70,1.0,2.0,59,0.00,SCT,SCT,0.00,0.0,WeatherDisplay:10.37,2013-03-24 03:25:00,
2013-03-23 23:30:00,36.1,23.2,29.94,ENE,57,0.0,0.0,59,0.00,SCT,SCT,0.00,0.0,WeatherDisplay:10.37,2013-03-24 03:30:00,
2013-03-23 23:35:00,36.1,23.1,29.95,NE,56,0.0,0.0,59,0.00,SCT,SCT,0.00,0.0,WeatherDisplay:10.37,2013-03-24 03:35:00,
2013-03-23 23:40:00,35.8,23.2,29.95,ENE,70,0.0,0.0,60,0.00,SCT,SCT,0.00,0.0,WeatherDisplay:10.37,2013-03-24 03:40:00,
2013-03-23 23:45:00,35.8,23.2,29.95,ENE,66,0.0,0.0,60,0.00,SCT,SCT,0.00,0.0,WeatherDisplay:10.37,2013-03-24 03:45:00,
2013-03-23 23:50:00,35.4,22.9,29.94,NE,51,0.0,0.0,60,0.00,SCT,SCT,0.00,0.0,WeatherDisplay:10.37,2013-03-24 03:50:00,
2013-03-23 23:55:00,35.4,23.3,29.93,NE,52,0.0,2.0,61,0.00,SCT,SCT,0.00,0.0,WeatherDisplay:10.37,2013-03-24 03:55:00,